Back to catalog

STARLINK-5635

AliveCommunicationsVLEO
NORAD 55367·PAYLOAD·🇺🇸 United States

Launched Jan 26, 2023 from Cape Canaveral Space Force Station

Loading…

Next Passes (next 24 hours)

TLE

FreshSource: CelesTrak SupGP

Epoch: Sep 14, 2026, 13:15 UTC

1 55367C 23013AN  26257.55256944  .00052026  00000+0  18843-2 0  2574
2 55367  43.0000 302.3308 0001493 273.8545 124.9870 15.27553072    14

Track STARLINK-5635 in real time with AllMySat

Download on the App Store